�v������,���r���O(���x),�����t���O,���r���O(���x),�����t���O,��1(���x),�����t���O,��2���x),�����t���O,�������x,�����t���O
6/1/2003 0:00,26.4,1,61.8,1,20.8,1,23.9,1,23.8,1
6/1/2003 0:15,26.5,1,61.6,1,20.9,1,23.9,1,23.8,1
6/1/2003 0:30,26.7,1,62.8,1,20.5,1,24,1,23.9,1
6/1/2003 0:45,26.8,1,46.2,1,20.7,1,24,1,23.9,1
6/1/2003 1:00,26.9,1,62.7,1,20.8,1,24,1,23.9,1
6/1/2003 1:15,26.9,1,63.8,1,20.9,1,24.1,1,23.9,1
6/1/2003 1:30,26.8,1,63.8,1,21,1,24.1,1,23.9,1
6/1/2003 1:45,26.8,1,63.6,1,21.1,1,24.1,1,23.9,1
6/1/2003 2:00,26.8,1,63.9,1,21.2,1,24.2,1,23.9,1
6/1/2003 2:15,26.8,1,64,1,21.2,1,24.2,1,23.9,1
6/1/2003 2:30,26.9,1,63.9,1,21.3,1,24.2,1,23.9,1
6/1/2003 2:45,26.8,1,63.7,1,21.4,1,24.3,1,23.9,1
6/1/2003 3:00,26.8,1,63.4,1,21.4,1,24.3,1,23.9,1
6/1/2003 3:15,26.8,1,63.1,1,21.5,1,24.3,1,23.9,1
6/1/2003 3:30,26.8,1,63,1,21.5,1,24.4,1,23.9,1
6/1/2003 3:45,26.7,1,63,1,21.5,1,24.4,1,23.9,1
6/1/2003 4:00,26.7,1,62.9,1,21.6,1,24.4,1,23.9,1
6/1/2003 4:15,26.7,1,46.9,1,21.6,1,24.4,1,23.9,1
6/1/2003 4:30,26.7,1,63.2,1,21.7,1,24.4,1,23.9,1
6/1/2003 4:45,26.7,1,63.4,1,21.7,1,24.4,1,23.9,1
6/1/2003 5:00,26.7,1,63.1,1,21.7,1,24.5,1,23.9,1
6/1/2003 5:15,26.7,1,62.7,1,21.8,1,24.5,1,23.9,1
6/1/2003 5:30,26.7,1,62.8,1,21.8,1,24.5,1,23.9,1
6/1/2003 5:45,26.7,1,62.5,1,21.8,1,24.5,1,24,1
6/1/2003 6:00,26.7,1,62.3,1,21.9,1,24.5,1,24,1
6/1/2003 6:15,26.7,1,62.4,1,21.9,1,24.4,1,24,1
6/1/2003 6:30,26.7,1,62.5,1,21.9,1,24.4,1,24,1
6/1/2003 6:45,26.7,1,62.1,1,21.9,1,24.4,1,24,1
6/1/2003 7:00,26.8,1,45.7,1,20.3,1,24.4,1,24,1
6/1/2003 7:15,26.8,1,63.6,1,20.6,1,24.4,1,24,1
6/1/2003 7:30,26.8,1,65.3,1,20.8,1,24.3,1,24,1
6/1/2003 7:45,26.9,1,66.5,1,20.9,1,24.3,1,24,1
6/1/2003 8:00,26.9,1,67.4,1,20.6,1,24.3,1,24,1
6/1/2003 8:15,26.9,1,67.5,1,20.5,1,24.2,1,24.1,1
6/1/2003 8:30,26.9,1,68.4,1,20.8,1,24.1,1,24.1,1
6/1/2003 8:45,26.9,1,67.5,1,20.7,1,24.1,1,24.1,1
6/1/2003 9:00,26.9,1,68.2,1,20.6,1,24.1,1,24.1,1
6/1/2003 9:15,26.8,1,69.2,1,20.8,1,24.2,1,24.1,1
6/1/2003 9:30,26.8,1,51.7,1,21,1,24.3,1,24.1,1
6/1/2003 9:45,26.7,1,66.8,1,21.1,1,24.2,1,24.1,1
6/1/2003 10:00,26.6,1,65.8,1,21.2,1,24.2,1,24,1
6/1/2003 10:15,26.5,1,49.9,1,21.2,1,24.2,1,24,1
6/1/2003 10:30,26.4,1,50.1,1,21.3,1,24.2,1,24,1
6/1/2003 10:45,26.4,1,67,1,20.4,1,24.3,1,24,1
6/1/2003 11:00,26.4,1,66.7,1,20.8,1,24.4,1,24,1
6/1/2003 11:15,26.4,1,66.5,1,20.9,1,24.4,1,24,1
6/1/2003 11:30,26.5,1,66.2,1,21,1,24.5,1,24.1,1
6/1/2003 11:45,26.5,1,66.5,1,21.1,1,24.5,1,24.1,1
6/1/2003 12:00,26.7,1,66.1,1,21.2,1,24.6,1,24.3,1
6/1/2003 12:15,26.7,1,66.4,1,21.3,1,24.7,1,24.4,1
6/1/2003 12:30,26.8,1,66,1,20.6,1,24.7,1,24.5,1
6/1/2003 12:45,26.9,1,66,1,20.9,1,24.7,1,24.6,1
6/1/2003 13:00,26.9,1,49.9,1,21,1,24.7,1,24.7,1
6/1/2003 13:15,26.9,1,65.5,1,21.1,1,24.7,1,24.8,1
6/1/2003 13:30,26.9,1,64.9,1,21.2,1,24.7,1,24.9,1
6/1/2003 13:45,27,1,65.2,1,21.3,1,24.7,1,25,1
6/1/2003 14:00,27.1,1,65,1,21.4,1,24.7,1,25.1,1
6/1/2003 14:15,27.1,1,65,1,21.5,1,24.7,1,25.1,1
6/1/2003 14:30,27.2,1,65.7,1,21.5,1,24.7,1,25.2,1
6/1/2003 14:45,27.2,1,65.7,1,21.6,1,24.7,1,25.3,1
6/1/2003 15:00,27.2,1,65.5,1,21.7,1,24.7,1,25.3,1
6/1/2003 15:15,27.2,1,65.5,1,20.8,1,24.7,1,25.4,1
6/1/2003 15:30,27.3,1,65.6,1,21.1,1,24.7,1,25.4,1
6/1/2003 15:45,27.3,1,66.2,1,21.3,1,24.7,1,25.4,1
6/1/2003 16:00,27.4,1,66.5,1,21.4,1,24.7,1,25.5,1
6/1/2003 16:15,27.3,1,60.9,1,21.5,1,24.8,1,25.5,1
6/1/2003 16:30,27.2,1,57.5,1,21.6,1,24.7,1,25.6,1
6/1/2003 16:45,27.2,1,55.5,1,21.6,1,24.8,1,25.6,1
6/1/2003 17:00,27.2,1,52.4,1,21.7,1,24.9,1,25.6,1
6/1/2003 17:15,27.1,1,51.5,1,21.7,1,25,1,25.6,1
6/1/2003 17:30,27.2,1,49.2,1,21.8,1,25.1,1,25.5,1
6/1/2003 17:45,27,1,48.6,1,20.7,1,25.1,1,25.5,1
6/1/2003 18:00,27,1,45.7,1,21,1,25,1,25.5,1
6/1/2003 18:15,26.9,1,42.9,1,21.1,1,24.8,1,25.4,1
6/1/2003 18:30,26.8,1,42.9,1,21.2,1,24.7,1,25.3,1
6/1/2003 18:45,26.7,1,44.8,1,21.3,1,24.5,1,25.1,1
6/1/2003 19:00,26.8,1,46.4,1,20.7,1,24.4,1,25.1,1
6/1/2003 19:15,26.8,1,47.4,1,20.9,1,24.4,1,25,1
6/1/2003 19:30,26.8,1,47.4,1,21,1,24.5,1,25,1
6/1/2003 19:45,26.8,1,47.9,1,21.1,1,24.4,1,24.9,1
6/1/2003 20:00,26.8,1,48.2,1,21.2,1,24.4,1,24.9,1
6/1/2003 20:15,26.8,1,48.2,1,21.2,1,24.4,1,24.8,1
6/1/2003 20:30,26.8,1,46.9,1,21.3,1,24.4,1,24.8,1
6/1/2003 20:45,26.6,1,47.3,1,21.3,1,24.3,1,24.7,1
6/1/2003 21:00,26.6,1,46.5,1,21.4,1,24.3,1,24.7,1
6/1/2003 21:15,26.6,1,46.3,1,21.4,1,24.3,1,24.6,1
6/1/2003 21:30,26.6,1,30.1,1,21.4,1,24.2,1,24.5,1
6/1/2003 21:45,26.6,1,46.1,1,21.4,1,24.2,1,24.5,1
6/1/2003 22:00,26.6,1,47.7,1,20.7,1,24.2,1,24.4,1
6/1/2003 22:15,26.6,1,48.3,1,20.4,1,24.1,1,24.3,1
6/1/2003 22:30,26.6,1,49.6,1,20.5,1,24.1,1,24.3,1
6/1/2003 22:45,26.6,1,50.5,1,20,1,24.1,1,24.2,1
6/1/2003 23:00,26.6,1,49.7,1,20.2,1,24.1,1,24.2,1
6/1/2003 23:15,26.5,1,33.2,1,20.3,1,24.1,1,24.1,1
6/1/2003 23:30,26.4,1,48.5,1,20.4,1,24.1,1,24.1,1
6/1/2003 23:45,26.4,1,48.8,1,20.4,1,24.1,1,24,1
6/2/2003 0:00,26.4,1,48.6,1,20.5,1,24.1,1,23.9,1
6/2/2003 0:15,26.3,1,48.3,1,20.5,1,24.1,1,23.8,1
6/2/2003 0:30,26.3,1,48,1,20.5,1,24.1,1,23.7,1
6/2/2003 0:45,26.2,1,47.6,1,20.6,1,24.1,1,23.7,1
6/2/2003 1:00,26.1,1,47.2,1,20.6,1,24.1,1,23.6,1
6/2/2003 1:15,26.1,1,47,1,20.6,1,24,1,23.5,1
6/2/2003 1:30,26,1,47,1,20.7,1,24,1,23.4,1
6/2/2003 1:45,25.9,1,46.8,1,20.7,1,23.9,1,23.4,1
6/2/2003 2:00,25.9,1,46.6,1,20.7,1,23.9,1,23.3,1
6/2/2003 2:15,25.8,1,46.5,1,20.7,1,23.9,1,23.2,1
6/2/2003 2:30,25.7,1,30.5,1,20.7,1,23.8,1,23.1,1
6/2/2003 2:45,25.7,1,46.1,1,20.7,1,23.8,1,23.1,1
6/2/2003 3:00,25.6,1,45.8,1,20.7,1,23.8,1,23,1
6/2/2003 3:15,25.5,1,45.9,1,20.1,1,23.7,1,22.9,1
6/2/2003 3:30,25.5,1,46.5,1,20.2,1,23.6,1,22.9,1
6/2/2003 3:45,25.5,1,46.3,1,20.2,1,23.4,1,22.8,1
6/2/2003 4:00,25.4,1,46.5,1,20.3,1,23.3,1,22.7,1
6/2/2003 4:15,25.3,1,46.6,1,20.3,1,23.2,1,22.7,1
6/2/2003 4:30,25.2,1,46.8,1,20.3,1,23.1,1,22.6,1
6/2/2003 4:45,25.2,1,46.6,1,20.4,1,23,1,22.5,1
6/2/2003 5:00,25.1,1,46.6,1,20.4,1,22.9,1,22.5,1
6/2/2003 5:15,25,1,46.6,1,20.4,1,22.8,1,22.4,1
6/2/2003 5:30,25,1,46.7,1,20.4,1,22.8,1,22.4,1
6/2/2003 5:45,25,1,46.6,1,20.5,1,22.8,1,22.4,1
6/2/2003 6:00,24.6,1,39.9,1,19.8,1,22.5,1,22.3,1
6/2/2003 6:15,24.4,1,39.2,1,19.9,1,22.1,1,22.2,1
6/2/2003 6:30,24.3,1,40.8,1,20,1,21.9,1,22.1,1
6/2/2003 6:45,24.2,1,40.8,1,20.1,1,21.6,1,22,1
6/2/2003 7:00,24.3,1,41.6,1,20.1,1,21.7,1,22,1
6/2/2003 7:15,24.3,1,41.1,1,20.1,1,21.8,1,22,1
6/2/2003 7:30,24.3,1,41.5,1,19.9,1,21.9,1,22.1,1
6/2/2003 7:45,24.3,1,25.9,1,20,1,22,1,22.2,1
6/2/2003 8:00,24.5,1,43.1,1,20,1,22.2,1,22.3,1
6/2/2003 8:15,24.4,1,42.2,1,20.1,1,22.4,1,22.4,1
6/2/2003 8:30,24.5,1,40.4,1,20.2,1,22.6,1,22.5,1
6/2/2003 8:45,24.4,1,41.3,1,20.2,1,22.8,1,22.5,1
6/2/2003 9:00,24.6,1,42.4,1,19.8,1,22.9,1,22.6,1
6/2/2003 9:15,24.7,1,43.4,1,19.9,1,23,1,22.8,1
6/2/2003 9:30,24.8,1,44,1,20,1,23.1,1,22.9,1
6/2/2003 9:45,24.8,1,28.6,1,20.1,1,23.3,1,23.1,1
6/2/2003 10:00,24.9,1,44.7,1,20.2,1,23.4,1,23.3,1
6/2/2003 10:15,25,1,44.9,1,20.3,1,23.5,1,23.5,1
6/2/2003 10:30,25.1,1,45.2,1,20.4,1,23.6,1,23.7,1
6/2/2003 10:45,25.2,1,45.5,1,20.4,1,23.7,1,23.9,1
6/2/2003 11:00,25.3,1,45.7,1,20.5,1,23.8,1,24.1,1
6/2/2003 11:15,25.4,1,45.8,1,20.6,1,23.9,1,24.3,1
6/2/2003 11:30,25.5,1,29.7,1,20.7,1,24,1,24.4,1
6/2/2003 11:45,25.5,1,46.2,1,20.8,1,24,1,24.6,1
6/2/2003 12:00,25.6,1,46.4,1,20.8,1,24.1,1,24.8,1
6/2/2003 12:15,25.7,1,43.7,1,20.9,1,24.2,1,25.1,1
6/2/2003 12:30,25.8,1,46.6,1,21,1,24.3,1,25.3,1
6/2/2003 12:45,25.9,1,46.8,1,21.1,1,24.4,1,25.5,1
6/2/2003 13:00,26,1,30.8,1,21.2,1,24.5,1,25.8,1
6/2/2003 13:15,26.1,1,47.3,1,21.2,1,24.5,1,26,1
6/2/2003 13:30,26.2,1,47.4,1,21.3,1,24.6,1,26.1,1
6/2/2003 13:45,26.3,1,47.5,1,21.4,1,24.7,1,26.3,1
6/2/2003 14:00,26.3,1,47.3,1,21.5,1,24.7,1,26.4,1
6/2/2003 14:15,26.4,1,47.2,1,21.6,1,24.7,1,26.5,1
6/2/2003 14:30,26.4,1,46.9,1,21.6,1,24.7,1,26.6,1
6/2/2003 14:45,26.4,1,46.8,1,21.7,1,24.7,1,26.6,1
6/2/2003 15:00,26.5,1,46.9,1,21.8,1,24.8,1,26.7,1
6/2/2003 15:15,26.6,1,46.1,1,21.8,1,24.8,1,26.8,1
6/2/2003 15:30,26.6,1,44.9,1,22,1,24.9,1,26.7,1
6/2/2003 15:45,26.7,1,44.7,1,22,1,25,1,26.5,1
6/2/2003 16:00,26.7,1,44.6,1,22,1,24.9,1,26.4,1
6/2/2003 16:15,26.8,1,45.7,1,22.1,1,24.9,1,26.4,1
6/2/2003 16:30,26.9,1,42.7,1,22.1,1,25,1,26.4,1
6/2/2003 16:45,26.9,1,46,1,22.2,1,25.2,1,26.3,1
6/2/2003 17:00,26.9,1,45.9,1,22.2,1,25.4,1,26.3,1
6/2/2003 17:15,26.9,1,45.9,1,22.2,1,25.6,1,26.3,1
6/2/2003 17:30,26.9,1,45.7,1,22.2,1,25.7,1,26.3,1
6/2/2003 17:45,26.8,1,45.2,1,22.3,1,25.7,1,26.3,1
6/2/2003 18:00,26.8,1,46,1,22.3,1,25.6,1,26.3,1
6/2/2003 18:15,26.8,1,46.8,1,22.4,1,25.4,1,26.2,1
6/2/2003 18:30,26.8,1,46.8,1,22.4,1,25.2,1,26.2,1
6/2/2003 18:45,26.9,1,47.8,1,21.2,1,25.1,1,26.2,1
6/2/2003 19:00,26.9,1,47.8,1,21.3,1,24.9,1,26.1,1
6/2/2003 19:15,26.9,1,48,1,21.5,1,24.8,1,26.1,1
6/2/2003 19:30,26.9,1,48.4,1,20.4,1,24.7,1,26,1
6/2/2003 19:45,26.9,1,48.6,1,20.8,1,24.6,1,26,1
6/2/2003 20:00,26.9,1,49,1,21,1,24.6,1,26,1
6/2/2003 20:15,27,1,49.6,1,21.2,1,24.5,1,25.9,1
6/2/2003 20:30,26.9,1,49.9,1,21.3,1,24.4,1,25.9,1
6/2/2003 20:45,26.9,1,50.3,1,21.4,1,24.4,1,25.8,1
6/2/2003 21:00,26.9,1,50.5,1,21.5,1,24.3,1,25.8,1
6/2/2003 21:15,26.9,1,50.4,1,21.6,1,24.2,1,25.7,1
6/2/2003 21:30,27,1,34.6,1,21.6,1,24.3,1,25.6,1
6/2/2003 21:45,27,1,50.7,1,21.7,1,24.3,1,25.6,1
6/2/2003 22:00,27.1,1,50.9,1,21.7,1,24.4,1,25.5,1
6/2/2003 22:15,27.1,1,51.3,1,21.8,1,24.4,1,25.5,1
6/2/2003 22:30,27.2,1,50.5,1,21.8,1,24.5,1,25.4,1
6/2/2003 22:45,27.3,1,52.4,1,21.9,1,24.5,1,25.4,1
6/2/2003 23:00,27.2,1,52.6,1,21,1,24.5,1,25.3,1
6/2/2003 23:15,27.3,1,54.8,1,21.2,1,24.5,1,25.3,1
6/2/2003 23:30,27.3,1,35.7,1,21.3,1,24.6,1,25.3,1
6/2/2003 23:45,27.1,1,44.6,1,21.4,1,24.6,1,25.2,1
6/3/2003 0:00,27,1,45.5,1,21.4,1,24.6,1,25.2,1
6/3/2003 0:15,26.9,1,45.1,1,21.5,1,24.6,1,25.1,1
6/3/2003 0:30,26.9,1,42.4,1,21.5,1,24.6,1,25,1
6/3/2003 0:45,26.9,1,46.3,1,21.6,1,24.6,1,25,1
6/3/2003 1:00,26.8,1,47.4,1,21.6,1,24.5,1,24.9,1
6/3/2003 1:15,26.8,1,47.9,1,21.6,1,24.5,1,24.8,1
6/3/2003 1:30,26.7,1,48,1,21.6,1,24.5,1,24.7,1
6/3/2003 1:45,26.6,1,48,1,21.6,1,24.5,1,24.6,1
6/3/2003 2:00,26.5,1,48.3,1,21.6,1,24.4,1,24.6,1
6/3/2003 2:15,26.4,1,48.7,1,21.5,1,24.4,1,24.5,1
6/3/2003 2:30,26.3,1,48.2,1,21.4,1,24.3,1,24.4,1
6/3/2003 2:45,26.2,1,47.9,1,21.4,1,24.3,1,24.3,1
6/3/2003 3:00,26.1,1,47.4,1,21.3,1,24.2,1,24.3,1
6/3/2003 3:15,26,1,47,1,21.3,1,24.2,1,24.2,1
6/3/2003 3:30,25.9,1,45.2,1,21.2,1,24.1,1,24.1,1
6/3/2003 3:45,25.8,1,40.7,1,21.2,1,24.1,1,24,1
6/3/2003 4:00,25.6,1,43,1,21.2,1,24,1,23.9,1
6/3/2003 4:15,25.5,1,42.3,1,21.1,1,24,1,23.8,1
6/3/2003 4:30,25.5,1,41.4,1,21.1,1,23.9,1,23.7,1
6/3/2003 4:45,25.3,1,40.9,1,21.1,1,23.8,1,23.6,1
6/3/2003 5:00,25.2,1,41.6,1,20.5,1,23.8,1,23.6,1
6/3/2003 5:15,25.1,1,41.8,1,20.4,1,23.7,1,23.5,1
6/3/2003 5:30,25.1,1,41.7,1,20.4,1,23.7,1,23.4,1
6/3/2003 5:45,25,1,42.8,1,20.4,1,23.6,1,23.3,1
6/3/2003 6:00,24.7,1,43,1,20.5,1,23.2,1,23.2,1
6/3/2003 6:15,24.5,1,42.2,1,20,1,22.8,1,23.1,1
6/3/2003 6:30,24.5,1,42.5,1,20,1,22.6,1,23.1,1
6/3/2003 6:45,24.4,1,42.4,1,20.1,1,22.3,1,23,1
6/3/2003 7:00,24.4,1,42.4,1,20.1,1,22.1,1,22.9,1
6/3/2003 7:15,24.3,1,42.6,1,20.2,1,22,1,22.8,1
6/3/2003 7:30,24.2,1,45,1,20.2,1,21.8,1,22.8,1
6/3/2003 7:45,24.1,1,45.7,1,20.3,1,21.7,1,22.7,1
6/3/2003 8:00,24.2,1,46.5,1,20.3,1,21.8,1,22.7,1
6/3/2003 8:15,24.2,1,45.6,1,20.4,1,21.9,1,22.7,1
6/3/2003 8:30,24.3,1,46.9,1,19.9,1,22.1,1,22.8,1
6/3/2003 8:45,24.4,1,47.5,1,19.8,1,22.2,1,22.8,1
6/3/2003 9:00,24.6,1,47.9,1,19.9,1,22.4,1,22.9,1
6/3/2003 9:15,24.6,1,48.2,1,20,1,22.6,1,23.1,1
6/3/2003 9:30,24.7,1,48.5,1,20.1,1,22.8,1,23.2,1
6/3/2003 9:45,24.9,1,49.7,1,20.2,1,23.1,1,23.3,1
6/3/2003 10:00,24.9,1,49.5,1,20.2,1,23.2,1,23.5,1
6/3/2003 10:15,25.2,1,50.4,1,20.3,1,23.4,1,23.6,1
6/3/2003 10:30,25.3,1,50.7,1,19.6,1,23.5,1,23.8,1
6/3/2003 10:45,25.5,1,50.2,1,19.8,1,23.7,1,23.9,1
6/3/2003 11:00,25.6,1,50,1,20,1,23.9,1,24.1,1
6/3/2003 11:15,25.8,1,50.1,1,20.1,1,24,1,24.2,1
6/3/2003 11:30,25.9,1,50.3,1,20.2,1,24.1,1,24.4,1
6/3/2003 11:45,26,1,50.2,1,20.4,1,24.3,1,24.5,1
6/3/2003 12:00,26.1,1,50,1,20.5,1,24.6,1,24.7,1
6/3/2003 12:15,26.2,1,50.1,1,20.6,1,24.8,1,24.9,1
6/3/2003 12:30,26.3,1,33.7,1,20.7,1,24.9,1,25.1,1
6/3/2003 12:45,26.4,1,50,1,20.8,1,25,1,25.3,1
6/3/2003 13:00,26.6,1,49.9,1,21,1,25.1,1,25.5,1
6/3/2003 13:15,26.7,1,49.9,1,21.1,1,25.2,1,25.8,1
6/3/2003 13:30,26.8,1,49.9,1,20.4,1,25.3,1,26,1
6/3/2003 13:45,26.9,1,49.6,1,20.7,1,25.3,1,26.2,1
6/3/2003 14:00,27,1,49.6,1,20.8,1,25.4,1,26.4,1
6/3/2003 14:15,27.1,1,49.6,1,21,1,25.6,1,26.6,1
6/3/2003 14:30,27.2,1,48.8,1,21.1,1,25.8,1,26.8,1
6/3/2003 14:45,27.2,1,48.1,1,21.2,1,25.9,1,26.9,1
6/3/2003 15:00,27.3,1,35.5,1,21.3,1,26.1,1,27,1
6/3/2003 15:15,27.4,1,46.1,1,21.4,1,26.4,1,27.2,1
6/3/2003 15:30,27.5,1,46.2,1,21.5,1,26.8,1,27.3,1
6/3/2003 15:45,27.7,1,44.7,1,21.7,1,27.1,1,27.4,1
6/3/2003 16:00,27.8,1,45.6,1,21.8,1,27.4,1,27.5,1
6/3/2003 16:15,27.9,1,44.9,1,21.9,1,27.6,1,27.6,1
6/3/2003 16:30,28,1,42.5,1,22,1,27.8,1,27.6,1
6/3/2003 16:45,28.2,1,44.1,1,22.1,1,27.8,1,27.7,1
6/3/2003 17:00,28.2,1,43.7,1,22.2,1,27.8,1,27.7,1
6/3/2003 17:15,28.2,1,43.8,1,22.3,1,27.7,1,27.7,1
6/3/2003 17:30,28.3,1,45.4,1,22.5,1,27.5,1,27.6,1
6/3/2003 17:45,28.4,1,46.4,1,22.6,1,27.4,1,27.5,1
6/3/2003 18:00,28.5,1,47.3,1,22.7,1,27.2,1,27.4,1
6/3/2003 18:15,28.5,1,37.7,1,22.8,1,27,1,27.3,1
6/3/2003 18:30,28.5,1,47.4,1,22.9,1,26.9,1,27.2,1
6/3/2003 18:45,28.5,1,47.5,1,23,1,26.7,1,27,1
6/3/2003 19:00,28.5,1,47.8,1,23.1,1,26.5,1,26.9,1
6/3/2003 19:15,28.6,1,48.4,1,23.2,1,26.4,1,26.8,1
6/3/2003 19:30,28.5,1,48.8,1,23.2,1,26.2,1,26.7,1
6/3/2003 19:45,28.5,1,49,1,23.3,1,26.1,1,26.6,1
6/3/2003 20:00,28.5,1,49,1,23.3,1,26.1,1,26.6,1
6/3/2003 20:15,28.5,1,49,1,23.3,1,26,1,26.6,1
6/3/2003 20:30,28.5,1,49,1,23.3,1,25.9,1,26.6,1
6/3/2003 20:45,28.5,1,49,1,22,1,25.9,1,26.6,1
6/3/2003 21:00,28.4,1,48.3,1,22.1,1,25.8,1,26.4,1
6/3/2003 21:15,28.3,1,48.1,1,22.3,1,25.9,1,26.3,1
6/3/2003 21:30,28.2,1,48.1,1,22.5,1,26,1,26.3,1
6/3/2003 21:45,28.1,1,48.3,1,22.6,1,26.1,1,26.3,1
6/3/2003 22:00,28,1,48.3,1,22.7,1,26.2,1,26.3,1
6/3/2003 22:15,27.9,1,47.7,1,22.8,1,26,1,26.3,1
6/3/2003 22:30,27.8,1,47.5,1,22.8,1,25.7,1,26.2,1
6/3/2003 22:45,27.8,1,31.8,1,22.9,1,25.4,1,26.1,1
6/3/2003 23:00,27.6,1,48.3,1,22.9,1,25.2,1,26.1,1
6/3/2003 23:15,27.4,1,48.9,1,21.6,1,25,1,26,1
6/3/2003 23:30,27.3,1,50.6,1,21.8,1,24.8,1,25.9,1
6/3/2003 23:45,27.5,1,50.2,1,21.9,1,24.7,1,25.9,1
6/4/2003 0:00,27.5,1,50.3,1,21.9,1,24.7,1,25.9,1
6/4/2003 0:15,27.6,1,50.3,1,22,1,24.7,1,25.9,1
6/4/2003 0:30,27.6,1,34.6,1,22.1,1,24.7,1,25.8,1
6/4/2003 0:45,27.5,1,50.6,1,22.2,1,24.6,1,25.8,1
6/4/2003 1:00,27.6,1,52.1,1,21.2,1,24.7,1,25.7,1
6/4/2003 1:15,27.6,1,52.3,1,21.4,1,24.7,1,25.7,1
6/4/2003 1:30,27.6,1,52.8,1,21.5,1,24.8,1,25.6,1
6/4/2003 1:45,27.6,1,52.9,1,21.7,1,24.8,1,25.5,1
6/4/2003 2:00,27.6,1,53.1,1,21.8,1,24.8,1,25.4,1
6/4/2003 2:15,27.5,1,53.4,1,21.8,1,24.8,1,25.3,1
6/4/2003 2:30,27.5,1,53.4,1,21.9,1,24.8,1,25.3,1
6/4/2003 2:45,27.5,1,53.4,1,22,1,24.8,1,25.2,1
6/4/2003 3:00,27.5,1,53.5,1,22,1,24.8,1,25.1,1
6/4/2003 3:15,27.4,1,53.5,1,22,1,24.7,1,25.1,1
6/4/2003 3:30,27.4,1,53.5,1,22.1,1,24.7,1,25.1,1
6/4/2003 3:45,27.3,1,53.7,1,22.1,1,24.7,1,25,1
6/4/2003 4:00,27.3,1,53.6,1,22.2,1,24.6,1,25,1
6/4/2003 4:15,27.2,1,53.6,1,22.2,1,24.5,1,25,1
6/4/2003 4:30,27.2,1,53.7,1,22.2,1,24.5,1,24.9,1
6/4/2003 4:45,27.1,1,53.8,1,22.2,1,24.4,1,24.9,1
6/4/2003 5:00,27.1,1,53.8,1,22.2,1,24.4,1,24.8,1
6/4/2003 5:15,27.1,1,53.9,1,22.2,1,24.4,1,24.8,1
6/4/2003 5:30,27,1,47.2,1,22.2,1,24.3,1,24.7,1
6/4/2003 5:45,26.9,1,54.6,1,21.2,1,24.3,1,24.7,1
6/4/2003 6:00,26.6,1,56.3,1,21.5,1,24.2,1,24.7,1
6/4/2003 6:15,26.4,1,56.8,1,21.6,1,24,1,24.6,1
6/4/2003 6:30,26.4,1,57.2,1,21.7,1,23.9,1,24.6,1
6/4/2003 6:45,26.4,1,57,1,21.7,1,23.8,1,24.6,1
6/4/2003 7:00,26.3,1,57.4,1,21.8,1,23.8,1,24.6,1
6/4/2003 7:15,26.4,1,57.8,1,21.8,1,23.7,1,24.6,1
6/4/2003 7:30,26.2,1,57.8,1,21.9,1,23.6,1,24.6,1
6/4/2003 7:45,26.3,1,57.4,1,21.9,1,23.6,1,24.6,1
6/4/2003 8:00,26.3,1,57.1,1,22,1,23.6,1,24.5,1
6/4/2003 8:15,26.3,1,57.3,1,22,1,23.6,1,24.5,1
6/4/2003 8:30,26.4,1,56.6,1,21.1,1,23.7,1,24.6,1
6/4/2003 8:45,26.5,1,56.8,1,20.6,1,23.9,1,24.6,1
6/4/2003 9:00,26.7,1,56.1,1,20.9,1,24,1,24.7,1
6/4/2003 9:15,26.7,1,56.1,1,21,1,24.1,1,24.7,1
6/4/2003 9:30,26.7,1,56.1,1,21.2,1,24.2,1,24.8,1
6/4/2003 9:45,26.8,1,56.2,1,21.3,1,24.2,1,24.8,1
6/4/2003 10:00,26.8,1,56.3,1,21.4,1,24.3,1,24.8,1
6/4/2003 10:15,26.8,1,56.1,1,21.5,1,24.3,1,24.9,1
6/4/2003 10:30,26.9,1,56,1,21.5,1,24.4,1,24.9,1
6/4/2003 10:45,26.9,1,55.4,1,21.6,1,24.4,1,25,1
6/4/2003 11:00,26.9,1,47.1,1,21.7,1,24.4,1,25,1
6/4/2003 11:15,26.8,1,53.7,1,21.7,1,24.4,1,25,1
6/4/2003 11:30,26.8,1,52.6,1,21.8,1,24.4,1,25,1
6/4/2003 11:45,26.8,1,52.5,1,21.8,1,24.4,1,25.1,1
6/4/2003 12:00,26.8,1,52.2,1,21.9,1,24.4,1,25.1,1
6/4/2003 12:15,26.8,1,52.2,1,21.9,1,24.3,1,25.1,1
6/4/2003 12:30,26.8,1,52.5,1,22,1,24.3,1,25.1,1
6/4/2003 12:45,26.9,1,52.9,1,22,1,24.3,1,25.1,1
6/4/2003 13:00,26.9,1,52.9,1,22.1,1,24.3,1,25.1,1
6/4/2003 13:15,26.7,1,51.2,1,22.1,1,24.3,1,25.1,1
6/4/2003 13:30,26.8,1,50.9,1,22.2,1,24.3,1,25.1,1
6/4/2003 13:45,26.8,1,51.7,1,21.2,1,24.3,1,25.1,1
6/4/2003 14:00,26.8,1,51.9,1,21.4,1,24.3,1,25.1,1
6/4/2003 14:15,26.7,1,48.2,1,21.6,1,24.2,1,25.1,1
6/4/2003 14:30,26.7,1,49.5,1,20.8,1,24.2,1,25.1,1
6/4/2003 14:45,26.7,1,50.1,1,21.1,1,24.2,1,25,1
6/4/2003 15:00,26.8,1,50.5,1,21.3,1,24.2,1,25,1
6/4/2003 15:15,26.7,1,50.6,1,21.4,1,24.2,1,25,1
6/4/2003 15:30,26.7,1,51.2,1,21.5,1,24.1,1,25,1
6/4/2003 15:45,26.7,1,52.2,1,21.6,1,24.1,1,24.9,1
6/4/2003 16:00,26.7,1,52.5,1,21.7,1,24,1,24.9,1
6/4/2003 16:15,26.6,1,52.5,1,21.7,1,24,1,24.9,1
6/4/2003 16:30,26.6,1,52.8,1,21.8,1,24,1,24.8,1
6/4/2003 16:45,26.6,1,52.9,1,21.9,1,23.9,1,24.8,1
6/4/2003 17:00,26.6,1,53.4,1,21.9,1,23.9,1,24.7,1
6/4/2003 17:15,26.6,1,53.2,1,21.9,1,23.9,1,24.7,1
6/4/2003 17:30,26.6,1,54.1,1,22,1,23.9,1,24.6,1
6/4/2003 17:45,26.7,1,54,1,22,1,24,1,24.6,1
6/4/2003 18:00,26.6,1,54.3,1,22,1,23.9,1,24.6,1
6/4/2003 18:15,26.6,1,53.4,1,22.1,1,23.9,1,24.5,1
6/4/2003 18:30,26.7,1,53.9,1,22.1,1,23.9,1,24.5,1
6/4/2003 18:45,26.6,1,54.6,1,22.1,1,24,1,24.4,1
6/4/2003 19:00,26.6,1,53.8,1,22.1,1,24,1,24.4,1
6/4/2003 19:15,26.7,1,54.3,1,22.1,1,24,1,24.3,1
6/4/2003 19:30,26.6,1,54,1,22.1,1,24,1,24.2,1
6/4/2003 19:45,26.6,1,54.3,1,22.1,1,24,1,24.2,1
6/4/2003 20:00,26.5,1,54.6,1,22.1,1,24,1,24.1,1
6/4/2003 20:15,26.4,1,42.3,1,22.1,1,24,1,24,1
6/4/2003 20:30,26.5,1,54.2,1,22.1,1,24,1,24,1
6/4/2003 20:45,26.3,1,53.9,1,22.1,1,24,1,23.9,1
6/4/2003 21:00,26.2,1,53.9,1,22.1,1,24,1,23.9,1
6/4/2003 21:15,26.1,1,54,1,22.1,1,24,1,23.8,1
6/4/2003 21:30,26.2,1,55,1,22.1,1,23.9,1,23.7,1
6/4/2003 21:45,26.3,1,56,1,22.1,1,23.9,1,23.7,1
6/4/2003 22:00,26.3,1,39.4,1,22.1,1,24,1,23.6,1
6/4/2003 22:15,26.4,1,55,1,21,1,24,1,23.5,1
6/4/2003 22:30,26.3,1,55.3,1,21.1,1,23.9,1,23.5,1
6/4/2003 22:45,26.4,1,56.7,1,21.1,1,23.9,1,23.5,1
6/4/2003 23:00,26.4,1,57.1,1,21.2,1,23.9,1,23.4,1
6/4/2003 23:15,26.3,1,56.5,1,20.6,1,23.8,1,23.4,1
6/4/2003 23:30,26.4,1,56.1,1,20.7,1,23.8,1,23.4,1
6/4/2003 23:45,26.4,1,56,1,20.7,1,23.7,1,23.4,1
6/5/2003 0:00,26.4,1,48.4,1,20.8,1,23.7,1,23.4,1
6/5/2003 0:15,26.4,1,56.5,1,20.9,1,23.7,1,23.3,1
6/5/2003 0:30,26.3,1,51.7,1,20.9,1,23.6,1,23.3,1
6/5/2003 0:45,26.3,1,56.3,1,20.9,1,23.6,1,23.3,1
6/5/2003 1:00,26.3,1,56,1,21,1,23.6,1,23.2,1
6/5/2003 1:15,26.2,1,55.8,1,21,1,23.6,1,23.2,1
6/5/2003 1:30,26.1,1,55.5,1,21,1,23.5,1,23.1,1
6/5/2003 1:45,26.1,1,55.2,1,21,1,23.5,1,23.1,1
6/5/2003 2:00,26,1,55,1,21.1,1,23.5,1,23,1
6/5/2003 2:15,26,1,54.9,1,21.1,1,23.5,1,23,1
6/5/2003 2:30,25.9,1,54.7,1,21.1,1,23.4,1,22.9,1
6/5/2003 2:45,25.8,1,54.5,1,21.1,1,23.4,1,22.8,1
6/5/2003 3:00,25.7,1,54.5,1,21.1,1,23.4,1,22.8,1
6/5/2003 3:15,25.7,1,54.4,1,21.1,1,23.4,1,22.7,1
6/5/2003 3:30,25.6,1,54.4,1,21.1,1,23.3,1,22.7,1
6/5/2003 3:45,25.6,1,54.5,1,21.1,1,23.3,1,22.7,1
6/5/2003 4:00,25.6,1,54.5,1,21.1,1,23.3,1,22.6,1
6/5/2003 4:15,25.5,1,54.5,1,21,1,23.3,1,22.6,1
6/5/2003 4:30,25.4,1,54.4,1,21,1,23.3,1,22.5,1
6/5/2003 4:45,25.3,1,54.4,1,21,1,23.2,1,22.5,1
6/5/2003 5:00,25.3,1,54.4,1,21,1,23.2,1,22.4,1
6/5/2003 5:15,25.2,1,54.4,1,21,1,23.1,1,22.4,1
6/5/2003 5:30,25.2,1,54.4,1,21,1,23.1,1,22.4,1
6/5/2003 5:45,25.2,1,54.8,1,21,1,23.1,1,22.4,1
6/5/2003 6:00,24.7,1,54.3,1,20.2,1,22.7,1,22.4,1
6/5/2003 6:15,24.4,1,54.4,1,20.3,1,22.3,1,22.4,1
6/5/2003 6:30,24.3,1,55.8,1,19.9,1,22.2,1,22.5,1
6/5/2003 6:45,24.4,1,55.9,1,20.1,1,22.1,1,22.5,1
6/5/2003 7:00,24.4,1,55.9,1,20.2,1,22.1,1,22.6,1
6/5/2003 7:15,24.3,1,54.7,1,20.2,1,22.1,1,22.6,1
6/5/2003 7:30,24.5,1,55,1,20.3,1,22.3,1,22.7,1
6/5/2003 7:45,24.6,1,53.8,1,20.3,1,22.5,1,22.8,1
6/5/2003 8:00,24.8,1,54.6,1,20.4,1,22.7,1,22.9,1
6/5/2003 8:15,24.8,1,54.4,1,20.4,1,22.9,1,23.1,1
6/5/2003 8:30,24.8,1,50.7,1,20.5,1,23.1,1,23.3,1
6/5/2003 8:45,25,1,51.5,1,20.5,1,23.3,1,23.4,1
6/5/2003 9:00,25.1,1,51.7,1,20,1,23.5,1,23.6,1
6/5/2003 9:15,25.3,1,52.1,1,20.2,1,23.6,1,23.7,1
6/5/2003 9:30,25.4,1,52.2,1,20.3,1,23.7,1,23.9,1
6/5/2003 9:45,25.5,1,52.3,1,20.4,1,23.9,1,24.1,1
6/5/2003 10:00,25.6,1,52.3,1,20.6,1,24,1,24.3,1
6/5/2003 10:15,25.7,1,52.2,1,20.7,1,24,1,24.5,1
6/5/2003 10:30,25.8,1,37.8,1,20.8,1,24.1,1,24.7,1
6/5/2003 10:45,25.9,1,52.3,1,20.9,1,24.2,1,24.8,1
6/5/2003 11:00,26,1,52.2,1,21.1,1,24.3,1,25.1,1
6/5/2003 11:15,26,1,52.2,1,21.2,1,24.4,1,25.3,1
6/5/2003 11:30,26.1,1,52.1,1,21.3,1,24.4,1,25.5,1
6/5/2003 11:45,26.2,1,51.9,1,21.4,1,24.5,1,25.8,1
6/5/2003 12:00,26.3,1,51.5,1,21.5,1,24.6,1,26,1
6/5/2003 12:15,26.4,1,51.5,1,21.6,1,24.7,1,26.2,1
6/5/2003 12:30,26.5,1,51.4,1,21.7,1,24.8,1,26.5,1
6/5/2003 12:45,26.6,1,51.3,1,21.8,1,24.9,1,26.7,1
6/5/2003 13:00,26.6,1,51,1,21.9,1,25,1,27,1
6/5/2003 13:15,26.7,1,50.9,1,22,1,25.1,1,27.2,1
6/5/2003 13:30,26.8,1,50.5,1,22.1,1,25.3,1,27.5,1
6/5/2003 13:45,26.8,1,50.3,1,22.2,1,25.5,1,27.7,1
6/5/2003 14:00,26.9,1,49.3,1,22.3,1,25.8,1,28,1
6/5/2003 14:15,27,1,48.1,1,22.4,1,26.1,1,28.2,1
6/5/2003 14:30,27.1,1,47.6,1,22.5,1,26.4,1,28.4,1
6/5/2003 14:45,27.3,1,47.9,1,22.6,1,26.6,1,28.5,1
6/5/2003 15:00,27.4,1,47.7,1,22.8,1,26.7,1,28.6,1
6/5/2003 15:15,27.5,1,46.5,1,22.9,1,26.8,1,28.7,1
6/5/2003 15:30,27.6,1,47.4,1,23,1,26.9,1,28.7,1
6/5/2003 15:45,27.8,1,46.8,1,23.1,1,27,1,28.6,1
6/5/2003 16:00,27.9,1,46,1,23.2,1,27,1,28.6,1
6/5/2003 16:15,28,1,46.2,1,23.2,1,27,1,28.6,1
6/5/2003 16:30,28,1,44.9,1,23.3,1,27,1,28.5,1
6/5/2003 16:45,28.2,1,44.9,1,21.5,1,27,1,28.5,1
6/5/2003 17:00,28.2,1,44.4,1,21.9,1,26.9,1,28.6,1
6/5/2003 17:15,28.2,1,44.6,1,22.2,1,26.9,1,28.6,1
6/5/2003 17:30,28.2,1,44.1,1,22.3,1,26.8,1,28.7,1
6/5/2003 17:45,28.2,1,43.8,1,22.4,1,26.8,1,28.7,1
6/5/2003 18:00,28.2,1,27.2,1,22.6,1,26.7,1,28.7,1
6/5/2003 18:15,28.1,1,40.7,1,22.6,1,26.5,1,28.6,1
6/5/2003 18:30,28.1,1,41.6,1,22.7,1,26.3,1,28.6,1
6/5/2003 18:45,28.1,1,42.1,1,22.8,1,26.2,1,28.5,1
6/5/2003 19:00,28,1,41.5,1,22.9,1,25.9,1,28.4,1
6/5/2003 19:15,28,1,42.5,1,22.9,1,25.8,1,28.3,1
6/5/2003 19:30,28,1,42.6,1,22.9,1,25.7,1,28.2,1
6/5/2003 19:45,28,1,42.8,1,23,1,25.6,1,28.1,1
6/5/2003 20:00,28,1,42.9,1,23,1,25.5,1,28,1
6/5/2003 20:15,28,1,29.2,1,23.1,1,25.4,1,27.9,1
6/5/2003 20:30,28,1,44,1,23.1,1,25.4,1,27.8,1
6/5/2003 20:45,28.1,1,44.9,1,22.7,1,25.4,1,27.7,1
6/5/2003 21:00,28.1,1,45.1,1,21.8,1,25.3,1,27.7,1
6/5/2003 21:15,28.1,1,34.3,1,22,1,25.3,1,27.6,1
6/5/2003 21:30,28.1,1,46.8,1,22.2,1,25.2,1,27.5,1
6/5/2003 21:45,28.1,1,47.1,1,22.3,1,25.2,1,27.5,1
6/5/2003 22:00,28.1,1,47.9,1,22.5,1,25.2,1,27.4,1
6/5/2003 22:15,28.1,1,47.8,1,22.6,1,25.1,1,27.3,1
6/5/2003 22:30,28.1,1,47.5,1,22.7,1,25.1,1,27.2,1
6/5/2003 22:45,28.1,1,48,1,22.7,1,25.1,1,27.1,1
6/5/2003 23:00,28.1,1,48.6,1,22.8,1,25,1,27,1
6/5/2003 23:15,28.1,1,33.2,1,22.8,1,25,1,26.9,1
6/5/2003 23:30,28.1,1,48.3,1,22.8,1,24.9,1,26.8,1
6/5/2003 23:45,28,1,48.3,1,22.8,1,24.9,1,26.7,1
6/6/2003 0:00,28,1,47.8,1,22.7,1,24.8,1,26.6,1